Header for Extended Forecast Station List Page

Search by: ID | Name | Date | Parm | Value | Avg | % Avg
Sort by: ID | Name | Date | Parm | Value | Avg | % Avg

Enter search or view all records.

Click on id for station plot
#IDNameDateParmValueAvg% Avg
0PARW1YAKIMA-NEAR PARKER06-17-2024DISCHARGE (KAF)2212717
1TCHW1WALLA WALLA-NEAR TOUCHET06-17-2024DISCHARGE (KAF)41132
2DLGM8CLARK FORK-AT DEER LODGE06-17-2024DISCHARGE (KAF)174240
3TONW1OKANOGAN-NEAR TONASKET06-17-2024DISCHARGE (KAF)23653145
4BONM8BLACKFOOT-NEAR BONNER06-17-2024DISCHARGE (KAF)13326650
5CHDW1CHELAN-LAKE CHELAN DAM06-17-2024INFLOW (KAF)21342950
6MYKO3MCKAY CREEK-NEAR PILOT ROCK06-17-2024DISCHARGE (KAF)1150
7ABOM8CLARK FORK-ABOVE MISSOULA06-17-2024DISCHARGE (KAF)29453955
8ANTI1HENRYS FORK-AT ST. ANTHONY06-17-2024DISCHARGE (KAF)17732255
9DRMM8CLARK FORK-NR DRUMMOND06-17-2024DISCHARGE (KAF)7412260
10BELM8CLARK FORK-BELOW MISSOULA06-17-2024DISCHARGE (KAF)59396861
11PATW1METHOW-NEAR PATEROS06-17-2024DISCHARGE (KAF)16426662
12BIGI1BOISE-AT GLENWOOD BRIDGE06-17-2024DISCHARGE (KAF)13021062
13SRGM8CLARK FORK-AT ST REGIS06-17-2024DISCHARGE (KAF)792125363
14NACW1NACHES-NEAR NACHES06-17-2024DISCHARGE (KAF)16025463
15WRMO3MALHEUR-WARM SPRINGS DAM06-17-2024INFLOW (KAF)3563
16EASW1YAKIMA-AT EASTON06-17-2024DISCHARGE (KAF)497664
17PDTO3UMATILLA-AT PENDLETON06-17-2024DISCHARGE (KAF)101565
18CLUW1CLE ELUM-CLE ELUM LAKE06-17-2024INFLOW (KAF)7811966
19CLFW1NACHES-NEAR CLIFFDEL06-17-2024DISCHARGE (KAF)8112366
20CHEI1FALL RIVER-NEAR CHESTER06-17-2024DISCHARGE (KAF)7711766
21BUDW1BUMPING-BUMPING LAKE DAM06-17-2024INFLOW (KAF)223367
22BERO3MALHEUR-AGENCY VALLEY DAM06-17-2024INFLOW (KAF)81367
23RCCM8ROCK CREEK-NEAR CLINTON06-17-2024DISCHARGE (KAF)7510968
24WGCM8MF FLATHEAD-NEAR WEST GLACIER06-17-2024DISCHARGE (KAF)36852171
25KADW1KACHESS-KACHESS DAM06-17-2024INFLOW (KAF)192771
26DWRI1NF CLEARWATER-DWORSHAK DAM06-17-2024INFLOW (KAF)36751571
27HHWM8SF FLATHEAD-HUNGRY HORSE DAM06-17-2024INFLOW (KAF)37852872
28STRM8ST. REGIS-NEAR ST. REGIS06-17-2024DISCHARGE (KAF)375172
29TNAW1TEANAWAY-BELOW FORKS06-17-2024DISCHARGE (KAF)91372
30BITM8BITTERROOT-NEAR MISSOULA06-17-2024DISCHARGE (KAF)29941073
31ARDW1ENTIAT-NEAR ARDENVOIR06-17-2024DISCHARGE (KAF)537373
32PARI1BOISE-NEAR PARMA06-17-2024DISCHARGE (KAF)14419674
33LEOI1KOOTENAI-AT LEONIA06-17-2024DISCHARGE (KAF)2059275675
34ARAI1SF BOISE-ANDERSON RANCH DAM06-17-2024INFLOW (KAF)8010675
35DEDI1DEADWOOD-NEAR LOWMAN06-17-2024INFLOW (KAF)243275
36FCFM8NF FLATHEAD-NEAR COLUMBIA FALLS06-17-2024DISCHARGE (KAF)43056976
37NOXM8CLARK FORK-NOXON RAPIDS DAM06-17-2024INFLOW (KAF)3080397677
38CABI1CLARK FORK-CABINET GORGE DAM06-17-2024INFLOW (KAF)3385438177
39RRHW1COLUMBIA-ROCKY REACH DAM06-17-2024INFLOW (KAF)198842535678
40CIBW1COLUMBIA-AT INTL BOUNDARY06-17-2024DISCHARGE (KAF)194782472179
41WANW1COLUMBIA-WANAPUM DAM06-17-2024INFLOW (KAF)203852574779
42PRWW1COLUMBIA-PRIEST RAPIDS DAM06-17-2024INFLOW (KAF)203872583579
43KIOW1YAKIMA-AT KIONA06-17-2024DISCHARGE (KAF)30138379
44KERM8FLATHEAD-SELI’Š KSANKA QLISPE’ DAM06-17-2024INFLOW (KAF)1845229380
45SPOW1SPOKANE-AT SPOKANE06-17-2024DISCHARGE (KAF)38848580
46WELW1COLUMBIA-WELLS DAM06-17-2024INFLOW (KAF)196752465180
47KEDW1YAKIMA-KEECHELUS LAKE06-17-2024INFLOW (KAF)243180
48MCDW1COLUMBIA-MCNARY DAM06-17-2024INFLOW (KAF)280163505580
49ALFW1PEND OREILLE-ALBENI FALLS DAM06-17-2024INFLOW (KAF)3622444781
50CHJW1COLUMBIA-CHIEF JOSEPH DAM06-17-2024INFLOW (KAF)192532365681
51REXI1HENRYS FORK-AT REXBURG06-17-2024DISCHARGE (KAF)26732981
52SNAI1SNAKE-AT BLACKFOOT06-17-2024DISCHARGE (KAF)60774881
53TRYO3GRANDE RONDE-TROY06-17-2024DISCHARGE (KAF)25431381
54BONO3COLUMBIA-BONNEVILLE DAM06-17-2024INFLOW (KAF)294743629681
55IPDI1HENRYS FORK-ISLAND PARK DAM06-17-2024INFLOW (KAF)11513982
56ORFI1CLEARWATER-AT OROFINO06-17-2024DISCHARGE (KAF)79897682
57JDAO3COLUMBIA-JOHN DAY DAM06-17-2024INFLOW (KAF)285203484382
58TDAO3COLUMBIA-THE DALLES DAM06-17-2024INFLOW (KAF)289913520982
59LYDM8KOOTENAI-LIBBY DAM06-17-2024INFLOW (KAF)2370284383
60UMTW1YAKIMA-AT UMTANUM06-17-2024DISCHARGE (KAF)56367983
61RILW1TIETON-RIMROCK LAKE NEAR RIMROCK06-17-2024INFLOW (KAF)779283
62WHBI1SALMON-AT WHITEBIRD06-17-2024DISCHARGE (KAF)1609192684
63LLKW1SPOKANE-AT LONGLAKE06-17-2024INFLOW (KAF)54063885
64COEI1COEUR D ALENE-COEUR D ALENE LAKE06-17-2024INFLOW (KAF)28132586
65GCDW1COLUMBIA-GRAND COULEE DAM06-17-2024INFLOW (KAF)204562365286
66HWRI1BIG LOST-AT HOWELL RANCH NEAR CHILLY06-17-2024DISCHARGE (KAF)606986
67WSRI1WEISER-NEAR WEISER06-17-2024DISCHARGE (KAF)556586
68LGDW1SNAKE-LOWER GRANITE DAM06-17-2024INFLOW (KAF)7206837286
69LGSW1SNAKE-LITTLE GOOSE DAM06-17-2024INFLOW (KAF)7206836086
70LMNW1SNAKE-LOWER MONUMENTAL DAM06-17-2024INFLOW (KAF)7213834986
71IHDW1SNAKE-ICE HARBOR DAM06-17-2024INFLOW (KAF)7218836186
72BFTI1SNAKE-NEAR BLACKFOOT06-17-2024DISCHARGE (KAF)61370887
73MAGI1BIG WOOD-MAGIC DAM06-17-2024INFLOW (KAF)384487
74ANAW1SNAKE-NEAR ANATONE06-17-2024DISCHARGE (KAF)4776549187
75CFMM8FLATHEAD-AT COLUMBIA FALLS06-17-2024DISCHARGE (KAF)1679191688
76SHYI1SNAKE-NEAR SHELLEY06-17-2024DISCHARGE (KAF)1174132888
77LWRI1LITTLE WOOD-LITTLE WOOD DAM06-17-2024INFLOW (KAF)151788
78PESW1WENATCHEE-AT PESHASTIN06-17-2024DISCHARGE (KAF)43048389
79JLKW4SNAKE-JACKSON LAKE AT DAM06-17-2024INFLOW (KAF)23926889
80SATI1ST MARIES-NEAR SANTA06-17-2024DISCHARGE (KAF)182090
81SIFI1SNAKE-AB EAGLE ROCK NR IDAHO FALLS06-17-2024DISCHARGE (KAF)1325147390
82SPDI1CLEARWATER-AT SPALDING06-17-2024DISCHARGE (KAF)2430265891
83HEII1SNAKE-NEAR HEISE06-17-2024DISCHARGE (KAF)2218239393
84AFRI1SNAKE-AMERICAN FALLS RESERVOIR06-17-2024INFLOW (KAF)1160124493
85PITW1KLICKITAT-NEAR PITT06-17-2024DISCHARGE (KAF)20021593
86HALI1BIG WOOD-AT HAILEY06-17-2024DISCHARGE (KAF)798197
87EMMI1PAYETTE-NEAR EMMETT06-17-2024DISCHARGE (KAF)40842097
88GIBO3UMATILLA-NEAR GIBBON06-17-2024DISCHARGE (KAF)121397
89SWAI1SNAKE-BELOW SWAN FALLS06-17-2024DISCHARGE (KAF)1610162699
90WEII1SNAKE-AT WEISER06-17-2024DISCHARGE (KAF)2490251099
91BRNI1SNAKE-BROWNLEE DAM06-17-2024INFLOW (KAF)26522645100
92MODO3DESCHUTES-AT MOODY NR BIGGS06-17-2024DISCHARGE (KAF)10841087100
93UNDW1WHITE SALMON-NEAR UNDERWOOD06-17-2024DISCHARGE (KAF)172172100
94MACI1BIG LOST-MACKAY RESERVOIR NEAR MACKAY06-17-2024INFLOW (KAF)6968101
95LUCI1BOISE-LUCKY PEAK DAM06-17-2024INFLOW (KAF)632627101
96ALPW4SNAKE-NEAR ALPINE06-17-2024DISCHARGE (KAF)13671336102
97CSDI1NF PAYETTE-CASCADE DAM06-17-2024INFLOW (KAF)9088102
98JKSW4SNAKE-NEAR JACKSON06-17-2024DISCHARGE (KAF)11561128103
99HODO3HOOD-NEAR TUCKER BRIDGE06-17-2024DISCHARGE (KAF)9794103
100LAUW1KETTLE-AT LAURIER06-17-2024DISCHARGE (KAF)385371104
101MONO3NF JOHN DAY-AT MONUMENT06-17-2024DISCHARGE (KAF)5553104
102PLDI1SF SNAKE-PALISADES DAM06-17-2024INFLOW (KAF)18151717106
103PRTI1PRIEST-NEAR PRIEST RIVER06-17-2024DISCHARGE (KAF)201185109
104SERO3JOHN DAY-AT SERVICE CK06-17-2024DISCHARGE (KAF)8980110
105TEAI1TETON-NEAR ST. ANTHONY06-17-2024DISCHARGE (KAF)250208120
106OWYO3OWYHEE-OWYHEE DAM06-17-2024INFLOW (KAF)8166123
107HOTI1BRUNEAU-NEAR HOT SPRINGS06-17-2024DISCHARGE (KAF)4334125
108UMAO3UMATILLA-NEAR UMATILLA06-17-2024DISCHARGE (KAF)3526134
109PIHI1PORTNEUF-AT POCATELLO06-17-2024DISCHARGE (KAF)3217188
110RIDI1WILLOW CREEK-RIRIE DAM06-17-2024INFLOW (KAF)167239
111BFEI1KOOTENAI-AT BONNERS FERRY06-17-2024STAGE (FT)MMM
112HOPI1PEND OREILLE-LAKE PEND OREILLE NR HOPE06-17-2024LAKE ELEVATION (FT)MMM
113SJMI1ST JOE-AT ST MARIES06-17-2024STAGE (FT)MMM
114MILI1SNAKE-AT MILNER06-17-2024DISCHARGE (KAF)M40M
115BULO3BULLY CREEK-BULLY CREEK DAM06-17-2024INFLOW (KAF)MMM